{"data":{"norad_id":60386,"intl_designator":"2024-140H","name":"QIANFAN-8","alt_names":[],"object_type":"PAYLOAD","status":"ACTIVE","operator":null,"country":"PRC","launch_date":"2024-08-06","launch_site_code":"TAISC","launch_vehicle":null,"mission":null,"orbit_class":"UNKNOWN","rcs_meters":null,"size_class":null,"mass_kg":null,"dimensions":null,"purposes":[],"wikipedia_slug":null,"has_3d_model":false,"image_url":null,"decayed_at":null,"tle_current":{"epoch":"2026-09-22T21:19:42.668256Z","epoch_age_seconds":77282,"freshness":"FRESH","line1":"1 60386U 24140H   26265.88868829  .00000034  00000+0  33951-4 0  9993","line2":"2 60386  88.9670 269.7768 0018728  96.4916 263.8369 13.51026126105717","mean_motion":13.51026126,"eccentricity":0.0018728,"inclination_deg":88.967,"raan_deg":269.7768,"arg_perigee_deg":96.4916,"mean_anomaly_deg":263.8369,"bstar":3.3951e-5,"rev_number":10571,"period_min":106.58565162344,"perigee_km":1054.5395475938,"apogee_km":1082.4316171383,"semimajor_km":7446.622582366,"source":"CELESTRAK","updated_at":"2026-09-23T09:00:20.598583Z"}}}